Content
SEND FEEDBACK

Daily
Averages
Monthly
Summary
Switzerland

ZERMATT, SWITZERLAND


Home > Europe > Switzerland
Elevation: 5282 feet     Latitude: 46 01N     Longitude: 007 45E

WEATHER
 
SELECT A DAY
Number of Records: 132,782;   Date Range: 7/1/96 - 7/11/14
 
SHARE

PRINT THIS DATA

[ ← Previous Day ]
WEATHER ALMANAC - SEPTEMBER 18, 2013
[ Next Day → ]
[ °C ]   °F
Weather ElementAverageHighLow
Temperature28.5 °F30.2 °F (12:55 pm)24.8 °F (11:55 pm)
Dewpoint19.3 °F23 °F (1:55 am)8.6 °F (3:55 pm)
Humidity66.2 %93 % (11:55 pm)43 % (3:55 pm)
Barometer29.96 in30.01 in (2:55 pm)29.92 in (3:55 am)
Wind Speed11.2 mph25.3 mph (8:55 am)
Wind Gust61 mph (8:55 am)
Weather ElementAverage
Visibility1.8 mi
Wind DirectionWSW (246.8 °)

Weather ElementTotal
Precipitation---
Heating Degree Days37.5 (Base 65)
Averaged from 31 records on September 18, 2013
WEATHER CONDITIONS BREAKOUT
WIND DIRECTION BREAKOUT
WEATHER BY HOUR - SEPTEMBER 18, 2013
[ °C ]   °F
Local TimeTemperatureDewpointHumidityBarometerVisibilityWind DirectionWind SpeedGust SpeedPrecipitationEventsConditions
1:55 AM28.4 °F23.0 °F80 %29.95 in0.5 miNNW (330°)10.4 mph28.8 mphFogLight Freezing Fog
2:00 AM28.0 °F22.0 °F71 %0.0 miNNW (330°)10.4 mphFogHeavy Fog
2:55 AM28.4 °F21.2 °F74 %29.95 in0.5 miWest (260°)11.5 mph34.5 mphFogLight Freezing Fog
3:55 AM28.4 °F21.2 °F74 %29.92 in0.3 miWNW (300°)11.5 mph40.3 mphFogLight Freezing Fog
4:55 AM28.4 °F17.6 °F64 %29.92 in0.5 miWest (270°)11.5 mph34.5 mphFogLight Freezing Fog
5:00 AM29.0 °F18.0 °F53 %0.0 miWest (270°)11.5 mphFogHeavy Fog
5:55 AM28.4 °F19.4 °F69 %29.95 in0.5 miWNW (290°)10.4 mph27.6 mphFogLight Freezing Fog
6:55 AM28.4 °F19.4 °F69 %29.95 in0.5 miNW (320°)6.9 mphFogLight Freezing Fog
7:55 AM28.4 °F21.2 °F74 %29.95 in0.5 miNorth (360°)18.4 mph38.0 mphFogLight Freezing Fog
8:00 AM28.0 °F21.0 °F65 %0.0 miNorth18.4 mphFogHeavy Fog
8:55 AM28.4 °F19.4 °F69 %29.95 in0.5 miNorth (10°)25.3 mph61.0 mphFogLight Freezing Fog
9:55 AM28.4 °F19.4 °F69 %29.95 in0.5 miNorth (350°)11.5 mph35.7 mphFogLight Freezing Fog
10:55 AM28.4 °F21.2 °F74 %29.98 in0.5 miNNW (330°)11.5 mph27.6 mphFogLight Freezing Fog
11:00 AM28.0 °F22.0 °F68 %0.0 miNNW (330°)11.5 mphFogHeavy Fog
11:55 AM28.4 °F21.2 °F74 %29.98 in0.5 miNNE (30°)13.8 mphFogLight Freezing Fog
12:55 PM30.2 °F19.4 °F64 %29.98 in0.9 miNorth (360°)9.2 mph29.9 mphMist
1:55 PM30.2 °F19.4 °F64 %29.98 in2.5 miSSE (160°)5.8 mphMostly Cloudy
2:00 PM30.0 °F19.0 °F53 %2.0 miSSE (160°)5.8 mphMist
2:55 PM30.2 °F10.4 °F44 %30.01 in6.2 miWNW (300°)5.8 mph19.6 mphPartly Cloudy
3:55 PM28.4 °F8.6 °F43 %29.98 in6.2 miWNW (290°)9.2 mph51.8 mphPartly Cloudy
4:55 PM30.2 °F15.8 °F55 %29.98 in6.2 miWest (270°)5.8 mph19.6 mphScattered Clouds
5:00 PM29.0 °F15.0 °F43 %7.0 miWest (270°)5.8 mphMostly Cloudy
5:55 PM30.2 °F19.4 °F64 %29.98 in6.2 miNW (320°)9.2 mph31.1 mphScattered Clouds
6:55 PM28.4 °F19.4 °F69 %29.95 in6.2 miWNW (300°)9.2 mph24.2 mphScattered Clouds
7:55 PM30.2 °F21.2 °F69 %29.95 in0.5 miNNW (330°)11.5 mph33.4 mphFogLight Freezing Fog
8:00 PM29.0 °F21.0 °F63 %0.0 miNNW (330°)11.5 mphFogHeavy Fog
8:55 PM26.6 °F21.2 °F80 %29.98 in0.5 miNE (40°)12.7 mph28.8 mphFogLight Freezing Fog
9:55 PM28.4 °F17.6 °F64 %29.98 in0.5 miNorth (10°)5.8 mph17.3 mphFogLight Freezing Fog
10:55 PM26.6 °F19.4 °F74 %29.98 in1.9 miNNW (340°)10.4 mph29.9 mphMist
11:00 PM27.0 °F20.0 °F64 %1.0 miNNW (340°)10.4 mphMist
11:55 PM24.8 °F23.0 °F93 %29.95 in1.9 miNE (50°)25.3 mph40.3 mphMist
Hourly data recorded from LIMH, located miles away from Zermatt, Switzerland







STORIES FROM OUR PARTNERS